Wiscasset, ME

9:49 PM EDT on August 29, 2016 (GMT -0400)
Wiscasset

Weather History for KIWI - February, 2014

Change the Weather History Date:

Monday, February 3, 2014

  Actual Average Record
Temperature  
Mean Temperature 28 °F -  
Max Temperature 35 °F 30 °F 53 °F (2016)
Min Temperature 19 °F 10 °F -11 °F (2015)
Degree Days  
Heating Degree Days 37    
Moisture  
Dew Point 15 °F    
Average Humidity 54    
Maximum Humidity 71    
Minimum Humidity 43    
Precipitation  
Precipitation 0.00 in - - ()
Sea Level Pressure  
Sea Level Pressure 30.21 in    
Wind  
Wind Speed 3 mph (NE)    
Max Wind Speed 7 mph    
Max Gust Speed -    
Visibility 10 miles    
Events      
Averages and records for this station are not official NWS values.
T = Trace of Precipitation, MM = Missing Value Source: NWS Daily Summary

Daily Weather History Graph

Daily Weather History Graph

Search for Another Location

Airport or City:

Trip Planner

Search our weather history database for the weather conditions in past years. The results will help you decide how hot, cold, wet, or windy it might be!

Date:

Astronomy

Feb. 03, 2014 Rise Set
Actual Time 6:53 AM EST 4:52 PM EST
Civil Twilight 6:23 AM EST 5:22 PM EST
Nautical Twilight 5:48 AM EST 5:56 PM EST
Astronomical Twilight 5:15 AM EST 6:30 PM EST
Moon 8:43 AM EST (2/3) 9:50 PM EST (2/3)
Length of Visible Light 10h 59m
Length of Day
9h 58m
Waxing Crescent, 19% of the Moon is Illuminated
Feb 3
Waxing Crescent
Feb 6
First Quarter
Feb 14
Full
Feb 22
Last Quarter
Mar 1
New

Hourly Weather History & Observations

Time (EST) Temp. Windchill Dew Point Humidity Pressure Visibility Wind Dir Wind Speed Gust Speed Precip Events Conditions
12:53 AM 35.1 °F 32.2 °F 25.0 °F 67% 30.07 in 10.0 mi Variable 3.5 mph - N/A   Partly Cloudy
1:53 AM 34.0 °F 29.8 °F 23.0 °F 64% 30.09 in 10.0 mi Variable 4.6 mph - N/A   Clear
2:53 AM 33.1 °F - 19.0 °F 56% 30.13 in 10.0 mi Calm Calm - N/A   Clear
3:53 AM 32.0 °F 25.6 °F 16.0 °F 52% 30.14 in 10.0 mi Variable 6.9 mph - N/A   Clear
4:53 AM 30.9 °F 26.2 °F 16.0 °F 54% 30.15 in 10.0 mi Variable 4.6 mph - N/A   Clear
5:53 AM 30.9 °F 27.5 °F 16.0 °F 54% 30.17 in 10.0 mi Variable 3.5 mph - N/A   Clear
6:53 AM 30.9 °F 26.2 °F 15.1 °F 52% 30.19 in 10.0 mi Variable 4.6 mph - N/A   Clear
7:53 AM 30.9 °F 27.5 °F 16.0 °F 54% 30.21 in 10.0 mi Variable 3.5 mph - N/A   Clear
8:53 AM 30.9 °F 25.2 °F 16.0 °F 54% 30.23 in 10.0 mi North 5.8 mph - N/A   Clear
9:53 AM 30.9 °F 25.2 °F 17.1 °F 57% 30.22 in 10.0 mi ENE 5.8 mph - N/A   Clear
10:53 AM 30.9 °F 25.2 °F 14.0 °F 50% 30.24 in 10.0 mi Variable 5.8 mph - N/A   Clear
11:53 AM 32.0 °F 27.5 °F 12.9 °F 45% 30.22 in 10.0 mi Variable 4.6 mph - N/A   Clear
12:53 PM 32.0 °F - 12.0 °F 44% 30.20 in 10.0 mi Calm Calm - N/A   Clear
1:53 PM 32.0 °F 25.6 °F 12.9 °F 45% 30.21 in 10.0 mi East 6.9 mph - N/A   Clear
2:53 PM 30.9 °F 25.2 °F 10.9 °F 43% 30.22 in 10.0 mi Variable 5.8 mph - N/A   Clear
3:53 PM 30.9 °F 27.5 °F 12.0 °F 46% 30.22 in 10.0 mi Variable 3.5 mph - N/A   Clear
4:53 PM 30.0 °F - 10.9 °F 45% 30.23 in 10.0 mi Calm Calm - N/A   Clear
5:53 PM 28.9 °F - 10.9 °F 47% 30.23 in 10.0 mi Calm Calm - N/A   Clear
6:53 PM 28.0 °F 24.2 °F 12.0 °F 51% 30.24 in 10.0 mi Variable 3.5 mph - N/A   Clear
7:53 PM 27.0 °F 23.0 °F 12.9 °F 56% 30.25 in 10.0 mi Variable 3.5 mph - N/A   Clear
8:53 PM 25.0 °F - 12.9 °F 60% 30.27 in 10.0 mi Calm Calm - N/A   Clear
9:53 PM 23.0 °F - 12.9 °F 65% 30.28 in 10.0 mi Calm Calm - N/A   Clear
10:53 PM 21.0 °F - 12.9 °F 71% 30.30 in 10.0 mi Calm Calm - N/A   Clear
11:53 PM 19.9 °F - 12.0 °F 71% 30.30 in 10.0 mi Calm Calm - N/A   Clear